RYR77G LBSF-LICA

Flight info

Callsign RYR77G
Flight time 1h 6m
Altitude 36000
Route NAPET T214 SIN DCT ORRIH DCT GOKEL DCT GEMVI DCT CRN L869 KOGEB
Aircraft B38M/M-SDE1FGHILORVWXY/HB1

Departure

Time 2026-05-06 07:34
Airport Sofia Airport (LBSF)

Arrival

Time 2026-05-06 08:40
Airport Lamezia Terme Sant'Eufemia International Airport (LICA)
Time Latitude Longitude Altitude Speed Heading
2026-05-06 06:58 42.69061 23.41151 1745 ft 0 kts 162°
2026-05-06 07:01 42.69063 23.41150 1750 ft 0 kts 162°
2026-05-06 07:11 42.69061 23.41151 1755 ft 0 kts 162°
2026-05-06 07:11 42.69063 23.41150 1755 ft 0 kts 162°
2026-05-06 07:27 42.69042 23.41159 1749 ft 10 kts 162°
2026-05-06 07:27 42.69009 23.41232 1748 ft 11 kts 37°
2026-05-06 07:28 42.69118 23.41201 1750 ft 23 kts 341°
2026-05-06 07:28 42.69290 23.41168 1753 ft 27 kts 11°
2026-05-06 07:28 42.69477 23.41439 1748 ft 22 kts 95°
2026-05-06 07:29 42.69465 23.41653 1755 ft 23 kts 94°
2026-05-06 07:29 42.69061 23.41151 1755 ft 0 kts 162°
2026-05-06 07:29 42.69041 23.41160 1749 ft 4 kts 162°
2026-05-06 07:29 42.69000 23.41199 1750 ft 12 kts 103°
2026-05-06 07:30 42.69062 23.41226 1747 ft 11 kts 342°
2026-05-06 07:30 42.69156 23.41181 1753 ft 20 kts 340°
2026-05-06 07:30 42.69334 23.41179 1754 ft 32 kts 11°
2026-05-06 07:30 42.69488 23.41273 1755 ft 23 kts 80°
2026-05-06 07:31 42.69472 23.41537 1755 ft 33 kts 94°
2026-05-06 07:31 42.69451 23.41870 1752 ft 36 kts 94°
2026-05-06 07:31 42.69432 23.42176 1755 ft 32 kts 95°
2026-05-06 07:31 42.69414 23.42483 1755 ft 33 kts 94°
2026-05-06 07:32 42.69407 23.42702 1755 ft 19 kts 78°
2026-05-06 07:32 42.69499 23.42721 1756 ft 17 kts 307°
2026-05-06 07:32 42.69573 23.42592 1756 ft 18 kts 319°
2026-05-06 07:32 42.69606 23.42430 1754 ft 19 kts 272°
2026-05-06 07:33 42.69630 23.42025 1755 ft 75 kts 274°
2026-05-06 07:33 42.69691 23.41039 1751 ft 132 kts 275°
2026-05-06 07:33 42.69770 23.39613 1828 ft 167 kts 273°
2026-05-06 07:33 42.69827 23.38023 2339 ft 173 kts 279°
2026-05-06 07:34 42.70396 23.36499 2645 ft 188 kts 316°
2026-05-06 07:34 42.71266 23.35224 3334 ft 185 kts 323°
2026-05-06 07:34 42.72316 23.34136 3812 ft 198 kts 314°
2026-05-06 07:34 42.73260 23.32641 4138 ft 218 kts 308°
2026-05-06 07:35 42.74243 23.30970 4440 ft 241 kts 308°
2026-05-06 07:35 42.75323 23.29116 4987 ft 249 kts 307°
2026-05-06 07:35 42.76301 23.27141 5683 ft 260 kts 291°
2026-05-06 07:35 42.76623 23.24658 6203 ft 271 kts 270°
2026-05-06 07:36 42.76686 23.22108 6879 ft 276 kts 271°
2026-05-06 07:36 42.76750 23.19467 7051 ft 278 kts 271°
2026-05-06 07:36 42.76802 23.16838 7092 ft 278 kts 271°
2026-05-06 07:36 42.76808 23.14214 7133 ft 278 kts 261°
2026-05-06 07:37 42.76463 23.12561 7591 ft 273 kts 243°
2026-05-06 07:37 42.75324 23.10499 8337 ft 277 kts 220°
2026-05-06 07:37 42.73144 23.08662 9349 ft 280 kts 210°
2026-05-06 07:37 42.72014 23.07776 9816 ft 284 kts 210°
2026-05-06 07:38 42.70294 23.06431 10468 ft 290 kts 210°
2026-05-06 07:38 42.68472 23.05021 10774 ft 310 kts 210°
2026-05-06 07:38 42.66564 23.03555 11145 ft 325 kts 210°
2026-05-06 07:38 42.63906 23.01521 11999 ft 332 kts 210°
2026-05-06 07:39 42.62541 23.00480 12500 ft 335 kts 210°
2026-05-06 07:39 42.60512 22.98932 13195 ft 340 kts 210°
2026-05-06 07:39 42.58436 22.97351 13945 ft 344 kts 210°
2026-05-06 07:39 42.56329 22.95749 14605 ft 349 kts 210°
2026-05-06 07:40 42.54196 22.94126 15313 ft 353 kts 210°
2026-05-06 07:40 42.52037 22.92486 15980 ft 357 kts 210°
2026-05-06 07:40 42.49884 22.90852 16646 ft 361 kts 210°
2026-05-06 07:40 42.47686 22.89186 17302 ft 365 kts 210°
2026-05-06 07:41 42.45448 22.87489 17951 ft 369 kts 210°
2026-05-06 07:41 42.43212 22.85796 18560 ft 373 kts 210°
2026-05-06 07:41 42.40932 22.84071 19099 ft 377 kts 210°
2026-05-06 07:41 42.38636 22.82334 19673 ft 380 kts 211°
2026-05-06 07:42 42.36315 22.80582 20228 ft 383 kts 211°
2026-05-06 07:42 42.33980 22.78820 20772 ft 386 kts 211°
2026-05-06 07:42 42.31627 22.77045 21320 ft 389 kts 211°
2026-05-06 07:42 42.29275 22.75274 21838 ft 392 kts 212°
2026-05-06 07:43 42.26885 22.73475 22331 ft 396 kts 212°
2026-05-06 07:43 42.24457 22.71649 22850 ft 399 kts 212°
2026-05-06 07:43 42.22042 22.69835 23357 ft 403 kts 212°
2026-05-06 07:43 42.19578 22.67985 23837 ft 406 kts 212°
2026-05-06 07:44 42.17092 22.66120 24243 ft 409 kts 212°
2026-05-06 07:44 42.14625 22.64272 24648 ft 412 kts 212°
2026-05-06 07:44 42.12108 22.62384 25037 ft 414 kts 213°
2026-05-06 07:44 42.09823 22.60057 25396 ft 410 kts 231°
2026-05-06 07:45 42.08108 22.57003 25806 ft 408 kts 239°
2026-05-06 07:45 42.06529 22.53866 26145 ft 411 kts 240°
2026-05-06 07:45 42.04935 22.50646 26527 ft 413 kts 240°
2026-05-06 07:45 42.03365 22.47436 26928 ft 415 kts 241°
2026-05-06 07:46 42.01781 22.44176 27283 ft 417 kts 241°
2026-05-06 07:46 42.00186 22.40889 27695 ft 419 kts 241°
2026-05-06 07:46 41.98589 22.37589 28082 ft 421 kts 242°
2026-05-06 07:46 41.97049 22.34225 28412 ft 423 kts 243°
2026-05-06 07:47 41.95520 22.30870 28789 ft 425 kts 243°
2026-05-06 07:47 41.93964 22.27473 29150 ft 427 kts 243°
2026-05-06 07:47 41.92402 22.24075 29497 ft 430 kts 243°
2026-05-06 07:47 41.90847 22.20694 29850 ft 432 kts 243°
2026-05-06 07:48 41.89260 22.17249 30188 ft 434 kts 243°
2026-05-06 07:48 41.87662 22.13781 30466 ft 436 kts 243°
2026-05-06 07:48 41.86076 22.10347 30740 ft 437 kts 243°
2026-05-06 07:48 41.84469 22.06866 31036 ft 439 kts 243°
2026-05-06 07:49 41.82849 22.03365 31333 ft 441 kts 243°
2026-05-06 07:49 41.81244 21.99902 31611 ft 442 kts 243°
2026-05-06 07:49 41.79621 21.96402 31887 ft 444 kts 243°
2026-05-06 07:49 41.77978 21.92863 32170 ft 446 kts 243°
2026-05-06 07:50 41.76356 21.89374 32517 ft 445 kts 243°
2026-05-06 07:50 41.74715 21.85847 32904 ft 444 kts 243°
2026-05-06 07:50 41.73078 21.82332 33288 ft 443 kts 243°
2026-05-06 07:50 41.71446 21.78834 33654 ft 442 kts 242°
2026-05-06 07:51 41.69835 21.75386 34095 ft 439 kts 243°
2026-05-06 07:51 41.68213 21.71915 34454 ft 437 kts 242°
2026-05-06 07:51 41.66605 21.68481 34755 ft 436 kts 242°
2026-05-06 07:51 41.65011 21.65078 35043 ft 436 kts 242°
2026-05-06 07:52 41.63396 21.61635 35325 ft 435 kts 242°
2026-05-06 07:52 41.61796 21.58228 35614 ft 434 kts 242°
2026-05-06 07:52 41.60195 21.54822 35879 ft 433 kts 242°
2026-05-06 07:52 41.58592 21.51418 36079 ft 434 kts 242°
2026-05-06 07:53 41.55375 21.44595 36081 ft 432 kts 242°
2026-05-06 07:53 41.52192 21.37858 36091 ft 432 kts 242°
2026-05-06 07:54 41.48993 21.31103 36100 ft 432 kts 242°
2026-05-06 07:54 41.45774 21.24320 36106 ft 432 kts 242°
2026-05-06 07:55 41.42560 21.17564 36076 ft 437 kts 242°
2026-05-06 07:55 41.39280 21.10685 36116 ft 443 kts 242°
2026-05-06 07:56 41.35964 21.03746 36106 ft 443 kts 241°
2026-05-06 07:56 41.32665 20.96859 36115 ft 443 kts 241°
2026-05-06 07:57 41.29358 20.89968 36131 ft 443 kts 241°
2026-05-06 07:57 41.26045 20.83081 36124 ft 443 kts 241°
2026-05-06 07:58 41.22731 20.76209 36135 ft 442 kts 241°
2026-05-06 07:58 41.19412 20.69337 36129 ft 441 kts 241°
2026-05-06 07:59 41.16111 20.62516 36129 ft 441 kts 241°
2026-05-06 07:59 41.13191 20.55388 36115 ft 437 kts 249°
2026-05-06 08:00 41.10725 20.48054 36103 ft 437 kts 249°
2026-05-06 08:00 41.08263 20.40714 36097 ft 437 kts 249°
2026-05-06 08:01 41.05784 20.33338 36106 ft 438 kts 249°
2026-05-06 08:01 41.03315 20.26010 36095 ft 437 kts 249°
2026-05-06 08:02 41.00823 20.18635 36110 ft 438 kts 249°
2026-05-06 08:02 40.98345 20.11319 36100 ft 437 kts 248°
2026-05-06 08:03 40.95864 20.04014 36100 ft 436 kts 248°
2026-05-06 08:03 40.93368 19.96682 36098 ft 436 kts 248°
2026-05-06 08:04 40.90885 19.89410 36101 ft 437 kts 248°
2026-05-06 08:04 40.88378 19.82085 36103 ft 437 kts 248°
2026-05-06 08:05 40.85885 19.74821 36098 ft 435 kts 248°
2026-05-06 08:05 40.83377 19.67531 36098 ft 435 kts 248°
2026-05-06 08:06 40.80888 19.60316 36105 ft 435 kts 248°
2026-05-06 08:06 40.78372 19.53040 36098 ft 435 kts 248°
2026-05-06 08:07 40.75854 19.45775 36104 ft 435 kts 247°
2026-05-06 08:07 40.73340 19.38546 36091 ft 434 kts 247°
2026-05-06 08:08 40.70836 19.31359 36103 ft 435 kts 247°
2026-05-06 08:08 40.68301 19.24104 36101 ft 434 kts 247°
2026-05-06 08:09 40.65786 19.16922 36096 ft 434 kts 247°
2026-05-06 08:09 40.63243 19.09676 36107 ft 434 kts 247°
2026-05-06 08:10 40.60653 19.02560 36088 ft 434 kts 239°
2026-05-06 08:10 40.58699 18.99516 36082 ft 438 kts 223°
2026-05-06 08:10 40.56191 18.97173 36108 ft 444 kts 217°
2026-05-06 08:11 40.53852 18.94639 36051 ft 438 kts 231°
2026-05-06 08:11 40.51889 18.91582 36106 ft 438 kts 230°
2026-05-06 08:11 40.47756 18.85664 36101 ft 439 kts 230°
2026-05-06 08:12 40.43628 18.79824 36094 ft 439 kts 230°
2026-05-06 08:12 40.39455 18.73939 36096 ft 439 kts 229°
2026-05-06 08:13 40.35309 18.68102 36082 ft 438 kts 229°
2026-05-06 08:13 40.31159 18.62272 36082 ft 438 kts 229°
2026-05-06 08:14 40.29072 18.59343 35957 ft 433 kts 229°
2026-05-06 08:14 40.27012 18.56458 35113 ft 437 kts 229°
2026-05-06 08:14 40.24958 18.53583 34333 ft 438 kts 229°
2026-05-06 08:14 40.22868 18.50661 33484 ft 440 kts 229°
2026-05-06 08:15 40.20772 18.47732 32598 ft 441 kts 229°
2026-05-06 08:15 40.18681 18.44814 31725 ft 443 kts 229°
2026-05-06 08:15 40.16561 18.41860 30858 ft 446 kts 229°
2026-05-06 08:15 40.14428 18.38888 29968 ft 448 kts 229°
2026-05-06 08:16 40.12314 18.35947 28960 ft 450 kts 229°
2026-05-06 08:16 40.10159 18.32951 27915 ft 453 kts 229°
2026-05-06 08:16 40.07995 18.29947 26864 ft 456 kts 229°
2026-05-06 08:16 40.05807 18.26912 25815 ft 460 kts 229°
2026-05-06 08:17 40.03617 18.23878 24576 ft 468 kts 229°
2026-05-06 08:17 40.01389 18.20793 23836 ft 465 kts 229°
2026-05-06 08:17 39.99182 18.17738 23160 ft 458 kts 229°
2026-05-06 08:17 39.97012 18.14738 22554 ft 451 kts 229°
2026-05-06 08:18 39.94891 18.11807 22354 ft 435 kts 229°
2026-05-06 08:18 39.92865 18.09007 22259 ft 419 kts 229°
2026-05-06 08:18 39.90901 18.06299 21866 ft 411 kts 229°
2026-05-06 08:18 39.88946 18.03604 21463 ft 404 kts 229°
2026-05-06 08:19 39.87025 18.00960 21081 ft 398 kts 229°
2026-05-06 08:19 39.85151 17.98383 20586 ft 395 kts 229°
2026-05-06 08:19 39.83258 17.95782 20200 ft 389 kts 229°
2026-05-06 08:19 39.81423 17.93263 20122 ft 391 kts 229°
2026-05-06 08:20 39.79540 17.90682 20077 ft 392 kts 229°
2026-05-06 08:20 39.77655 17.88099 20075 ft 393 kts 229°
2026-05-06 08:20 39.75774 17.85524 20074 ft 393 kts 229°
2026-05-06 08:20 39.73911 17.82976 20070 ft 393 kts 229°
2026-05-06 08:21 39.72022 17.80394 20074 ft 393 kts 229°
2026-05-06 08:21 39.70136 17.77818 20084 ft 394 kts 229°
2026-05-06 08:21 39.68236 17.75227 20076 ft 393 kts 229°
2026-05-06 08:21 39.66375 17.72689 20078 ft 392 kts 229°
2026-05-06 08:22 39.64489 17.70121 20071 ft 391 kts 229°
2026-05-06 08:22 39.62620 17.67578 19895 ft 386 kts 229°
2026-05-06 08:22 39.60755 17.65041 19293 ft 388 kts 229°
2026-05-06 08:22 39.58932 17.62564 18887 ft 384 kts 229°
2026-05-06 08:23 39.57082 17.60053 18402 ft 383 kts 229°
2026-05-06 08:23 39.55242 17.57558 17884 ft 381 kts 229°
2026-05-06 08:23 39.53417 17.55084 17455 ft 377 kts 229°
2026-05-06 08:23 39.51624 17.52656 17008 ft 373 kts 229°
2026-05-06 08:24 39.49828 17.50225 16517 ft 372 kts 228°
2026-05-06 08:24 39.48046 17.47816 16049 ft 370 kts 229°
2026-05-06 08:24 39.46276 17.45425 15647 ft 366 kts 228°
2026-05-06 08:24 39.44539 17.43079 15256 ft 362 kts 228°
2026-05-06 08:25 39.42788 17.40717 14769 ft 361 kts 228°
2026-05-06 08:25 39.41074 17.38407 14338 ft 360 kts 227°
2026-05-06 08:25 39.39345 17.36078 13984 ft 356 kts 228°
2026-05-06 08:25 39.37626 17.33766 13550 ft 353 kts 228°
2026-05-06 08:26 39.35947 17.31508 13052 ft 352 kts 227°
2026-05-06 08:26 39.34251 17.29229 12639 ft 349 kts 227°
2026-05-06 08:26 39.32570 17.26972 12226 ft 346 kts 228°
2026-05-06 08:26 39.30925 17.24765 11814 ft 343 kts 228°
2026-05-06 08:27 39.29282 17.22561 11620 ft 339 kts 228°
2026-05-06 08:27 39.27640 17.20361 11586 ft 343 kts 227°
2026-05-06 08:27 39.25986 17.18146 11589 ft 343 kts 228°
2026-05-06 08:27 39.24350 17.15958 11322 ft 339 kts 227°
2026-05-06 08:28 39.22842 17.13628 10873 ft 335 kts 239°
2026-05-06 08:28 39.21604 17.11130 10462 ft 333 kts 238°
2026-05-06 08:28 39.20326 17.08660 10231 ft 326 kts 237°
2026-05-06 08:28 39.19076 17.06278 10062 ft 316 kts 236°
2026-05-06 08:29 39.17852 17.03970 9895 ft 307 kts 236°
2026-05-06 08:29 39.16656 17.01733 9699 ft 299 kts 236°
2026-05-06 08:29 39.15473 16.99528 9301 ft 299 kts 235°
2026-05-06 08:29 39.14308 16.97360 8960 ft 297 kts 235°
2026-05-06 08:30 39.13134 16.95176 8579 ft 296 kts 235°
2026-05-06 08:30 39.11966 16.93008 8225 ft 295 kts 235°
2026-05-06 08:30 39.10802 16.90849 8069 ft 291 kts 235°
2026-05-06 08:30 39.09671 16.88753 7957 ft 282 kts 235°
2026-05-06 08:31 39.08581 16.86731 7919 ft 272 kts 235°
2026-05-06 08:31 39.07506 16.84738 7614 ft 270 kts 235°
2026-05-06 08:31 39.06433 16.82753 7301 ft 269 kts 236°
2026-05-06 08:31 39.05364 16.80777 6980 ft 268 kts 235°
2026-05-06 08:32 39.04299 16.78806 6690 ft 267 kts 234°
2026-05-06 08:32 39.03243 16.76855 6413 ft 265 kts 235°
2026-05-06 08:32 39.02200 16.74929 6149 ft 262 kts 235°
2026-05-06 08:32 39.01158 16.73008 5866 ft 263 kts 235°
2026-05-06 08:33 39.00124 16.71103 5613 ft 260 kts 236°
2026-05-06 08:33 38.99090 16.69196 5284 ft 260 kts 236°
2026-05-06 08:33 38.98055 16.67291 5081 ft 258 kts 236°
2026-05-06 08:33 38.97025 16.65393 4724 ft 261 kts 236°
2026-05-06 08:34 38.95999 16.63507 4420 ft 261 kts 236°
2026-05-06 08:34 38.93919 16.59685 3688 ft 262 kts 235°
2026-05-06 08:34 38.92873 16.57766 3409 ft 261 kts 235°
2026-05-06 08:35 38.91830 16.55849 3127 ft 261 kts 234°
2026-05-06 08:35 38.90822 16.53999 3128 ft 249 kts 234°
2026-05-06 08:35 38.89855 16.52225 3120 ft 234 kts 234°
2026-05-06 08:35 38.88949 16.50562 3111 ft 218 kts 234°
2026-05-06 08:36 38.88172 16.48958 3079 ft 213 kts 249°
2026-05-06 08:36 38.87984 16.47096 3063 ft 211 kts 272°
2026-05-06 08:36 38.88135 16.45200 2874 ft 216 kts 276°
2026-05-06 08:36 38.88342 16.43294 2612 ft 212 kts 277°
2026-05-06 08:37 38.88552 16.41505 2379 ft 196 kts 277°
2026-05-06 08:37 38.88745 16.39832 2170 ft 187 kts 277°
2026-05-06 08:37 38.88923 16.38262 1972 ft 167 kts 277°
2026-05-06 08:37 38.89082 16.36862 1756 ft 152 kts 277°
2026-05-06 08:38 38.89233 16.35555 1533 ft 147 kts 277°
2026-05-06 08:38 38.89382 16.34275 1291 ft 147 kts 277°
2026-05-06 08:38 38.89533 16.32981 1089 ft 147 kts 277°
2026-05-06 08:38 38.89678 16.31682 885 ft 146 kts 276°
2026-05-06 08:39 38.89827 16.30402 718 ft 144 kts 277°
2026-05-06 08:39 38.89977 16.29131 562 ft 144 kts 276°
2026-05-06 08:39 38.90112 16.27887 349 ft 141 kts 276°
2026-05-06 08:39 38.90261 16.26633 180 ft 143 kts 276°
2026-05-06 08:40 38.90405 16.25380 59 ft 140 kts 276°
2026-05-06 08:40 38.90528 16.24307 30 ft 90 kts 278°
2026-05-06 08:40 38.90597 16.23754 33 ft 54 kts 285°
2026-05-06 08:40 38.90735 16.23493 36 ft 22 kts 327°
2026-05-06 08:41 38.90838 16.23576 34 ft 22 kts 95°
2026-05-06 08:41 38.90818 16.23782 34 ft 24 kts 103°
2026-05-06 08:41 38.90788 16.23999 34 ft 25 kts 99°
2026-05-06 08:41 38.90807 16.24210 34 ft 17 kts 57°
2026-05-06 08:42 38.90819 16.24354 34 ft 17 kts 100°
2026-05-06 08:42 38.90837 16.24438 34 ft 7 kts
2026-05-06 08:42 38.90872 16.24449 34 ft 2 kts 38°
2026-05-06 08:42 38.90878 16.24457 34 ft 0 kts 48°